Location: Cieszkowy
(50.3290°N, 20.5336°E)
Time: 00:46:17
(UTC+00:00)

Cosmos 2263 Rocket - Pass Details

Date: 15 June 2024
Orbit: 824 x 846 km, 71.0° (Epoch: 18 July)

Event Time Altitude Azimuth Distance (km) Brightness Sun altitude
Exits shadow 00:58:56 11° 233° (SW) 2,366 3.9 -10.1°
Maximum altitude 01:04:08 48° 307° (NW) 1,075 2.8 -9.6°
Drops below altitude 10° 01:09:32 10° 22° (NNE) 2,436 6.1 -9.1°
Sets 01:12:04 0° 28° (NNE) 3,372 7.6 -8.9°
